Showing default

BEIDOU 6, 37210

Orbit data source: Space-Track

BEIDOU 6, 37210 is a payload satellite owned by CNSA (CN) in GEO that was launched on Sun, 31 Oct 2010 UTC via a CHANG ZHENG 3C launch vehicle from the Xichang Space Center, China (XSC). Payload-class satellites include a variety of spacecraft equipped with specific instruments for various scientific and technological missions. These include communications satellites like Starlink; space stations such as the ISS; scientific satellites like the Hubble; Earth observation satellites from companies like Planet Labs, Umbra, and HawkEye 360; GPS; miniature CubeSats for education and research; and military/defense satellites.

Not visible in the next 10 days
Identifier
37210, 2010-057A
Orbit
GEO
Country
Flag of CNCN / PRC
Related business
Manufacturer
CAST
Mission
Operational Defense Navigation
Bus & Motor
DFH-3B, FY-25
Mass
3,060 kg wet, 1,700 kg dry
Launch date (UTC)
2010-10-31 (15 years ago)
Launch vehicle
CHANG ZHENG 3C
Launch site
Xichang Space Center, China (XSC)
Object type
Payload
Rocket body
Debris
Shape & HBR
Box + 2 Pan, 9.0 m
Radar Cross Section
13.998 m², Large (>1 m²)

Expand to show TLE details & history
Last TLE update: 13 hours ago

TLE from 13 hours ago
0 BEIDOU 6
1 37210U 10057A   25293.58339155 -.00000107  00000-0  00000-0 0  9995
2 37210   3.0492  70.0906 0009634 177.8934 151.2818  1.00270663 54882
Epoch: 2025-10-20T14:00Z
TLE epoch observation values (Epoch: 2025-10-20T14:00:05.029Z)
Latitude
-1.55589°
Longitude
160.02039°
Altitude
35,822.356 km
Speed
3.072 km/s
True Right ascension
02h 37m 17s
True Declination
-1° 33' 16"
Sunlit
Object was in daylight at epoch
Visualization orbit readout
Latitude
Unknown
Longitude
Unknown
Altitude
Unknown
Speed
Unknown
Apparent Right ascension
Unknown
Apparent Declination
Unknown
Sunlit
N/A
Visualization observer readout
Local Sidereal Time
21:42:57
Azimuth
Unknown
Elevation
Unknown
Doppler factor
Unknown
Orbital elements
Apogee altitude
35,828.598 km
Perigee altitude
35,747.353 km
Semi-major axis
42,166.112 km
Eccentricity
0.00096
Inclination
3.0492°
RAAN
70.0906°
Arg. of periapsis
177.8934°
True anomaly
151.33479°
Mean anomaly
151.2818°
Eccentric anomaly
151.3083°
Mean motion
0.25067 °/min
Orbital period
1,436.17 mins
BSTAR
0
Loading maneuver chart data...
Computing Atmospheric mass density...
Loading historical data...
Loading historical data...
Loading historical data...
Loading historical data...
Loading historical data...
Loading historical data...
Loading historical data...

Documentation

Showing up to 5 results
|